sat.trackr.live / text

‹ back to catalog

2025-313BD

NORAD 67299 · 2025-313BD

PAYLOAD ACTIVE UNKNOWN

§ Identity

Operator
Country
TBD
Launch date
2025-12-28
Launch site
VOSTO
Launch vehicle
Mass (kg)
RCS (m²)

External: N2YO · Heavens-Above · Gunter

§ Orbital elements

Epoch: 2026-08-09T22:36:40.865760Z

Period
88.32 min
Inclination
97.4010°
Eccentricity
0.0014446
Mean motion
16.30388144 rev/d
Perigee alt
182.0 km
Apogee alt
201.0 km
Semi-major
6,569.6 km
B*
1.1918e-3
RAAN
302.3780°
Arg perigee
242.8767°
Mean anomaly
117.1055°
Rev number
3,456

§ Raw data

2025-313BD1 67299U 25313BD  26221.94213965  .05532030  24953-5  11918-2 0  99972 67299  97.4010 302.3780 0014446 242.8767 117.1055 16.30388144 34560

JSON: /api/v1/satellites/67299 · /tle

For live sub-satellite position, see the globe view (requires WebGL).

§ Visibility from observer

Set your observer location to see the next 7 days of passes ≥ 10°. The values pass through the URL so the page stays shareable.

No JS? Fill the form by hand. The geolocation button needs JavaScript.